GW2634 Weather Reports


time (UTC)temp
C
wind
direction
speed
KPH
gust
KPH
rain 1hr
cm
rain 24hr
cm
rain mn
cm
humidity
%
barometer
mb
20260503213041 21 229 3.2 8.0 0.00 0.00 0.00 51 1014.0
20260503211548 20 326 3.2 8.0 0.00 0.00 0.00 51 1014.2
20260503210053 19 44 6.4 11.3 0.00 0.00 0.00 55 1014.5
20260503204557 18 37 6.4 14.5 0.00 0.00 0.00 57 1014.6
20260503203041 18 15 4.8 16.1 0.00 0.00 0.00 59 1014.6
20260503201542 19 9 4.8 12.9 0.00 0.00 0.00 56 1015.0
20260503200045 18 339 8.0 16.1 0.00 0.00 0.00 60 1015.2
20260503194543 18 338 6.4 11.3 0.00 0.00 0.00 60 1015.2
20260503193044 18 178 4.8 6.4 0.00 0.00 0.00 64 1015.2
20260503191544 18 233 3.2 8.0 0.00 0.00 0.00 64 1015.2
20260503190046 17 222 3.2 6.4 0.00 0.00 0.00 65 1015.5
20260503184541 17 198 3.2 8.0 0.00 0.00 0.00 66 1015.6
20260503183047 17 224 4.8 8.0 0.00 0.00 0.00 65 1015.8
20260503181546 18 176 3.2 9.7 0.00 0.00 0.00 63 1015.8
20260503180056 18 51 6.4 11.3 0.00 0.00 0.00 60 1015.9
20260503174542 18 18 4.8 9.7 0.00 0.00 0.00 61 1016.0
20260503173117 17 357 1.6 9.7 0.00 0.00 0.00 62 1016.0
20260503171546 17 11 4.8 9.7 0.00 0.00 0.00 63 1016.2
20260503081555 14 76 0.0 3.2 0.00 0.00 0.00 61 1016.2
20260503071543 14 0 0.0 0.0 0.00 0.00 0.00 63 1016.1
20260503054541 13 0 0.0 0.0 0.00 0.00 0.00 70 1015.8
20260503053041 13 0 0.0 1.6 0.00 0.00 0.00 68 1015.8
20260503051545 14 0 0.0 1.6 0.00 0.00 0.00 69 1015.9
20260503050045 14 0 0.0 1.6 0.00 0.00 0.00 70 1015.9
20260503044544 14 99 0.0 1.6 0.00 0.00 0.00 70 1015.9
20260503043042 14 0 0.0 1.6 0.00 0.00 0.00 71 1015.8
20260503041543 14 140 0.0 1.6 0.00 0.00 0.00 73 1015.7
20260503040048 14 0 0.0 1.6 0.00 0.00 0.00 72 1015.6
20260503034546 14 147 0.0 3.2 0.00 0.00 0.00 71 1015.5
20260503033042 15 0 0.0 1.6 0.00 0.00 0.00 70 1015.4
20260503031550 16 0 0.0 1.6 0.00 0.00 0.00 68 1015.3
20260503030041 16 0 0.0 3.2 0.00 0.00 0.00 65 1015.3
20260503024546 17 236 0.0 3.2 0.00 0.00 0.00 62 1015.2
20260503023041 19 337 3.2 12.9 0.00 0.00 0.00 51 1015.2
20260503021547 19 340 3.2 9.7 0.00 0.00 0.00 53 1015.3
20260503020051 20 341 0.0 9.7 0.00 0.00 0.00 49 1015.3
20260503014544 20 26 1.6 6.4 0.00 0.00 0.00 52 1015.4
20260503013043 19 297 0.0 4.8 0.00 0.00 0.00 57 1015.5
20260503011547 18 0 0.0 3.2 0.00 0.00 0.00 61 1015.7
20260503010041 18 248 1.6 6.4 0.00 0.00 0.00 63 1015.8
20260503004609 18 233 1.6 4.8 0.00 0.00 0.00 65 1015.9
20260503003042 17 222 1.6 4.8 0.00 0.00 0.00 65 1016.0
20260503001542 17 226 3.2 6.4 0.00 0.00 0.00 66 1016.0
20260503000058 17 182 3.2 8.0 0.00 0.00 0.00 69 1016.1
20260502234541 16 209 4.8 9.7 0.00 0.00 0.00 68 1016.5
20260502233045 17 221 4.8 8.0 0.00 0.00 0.00 67 1016.5
20260502231603 17 184 4.8 8.0 0.00 0.00 0.00 66 1016.6
20260502230044 19 238 3.2 8.0 0.00 0.00 0.00 62 1016.7
20260502224555 19 11 3.2 9.7 0.00 0.00 0.00 56 1016.8
20260502223041 18 326 6.4 11.3 0.00 0.00 0.00 58 1017.1
20260502221553 18 3 3.2 9.7 0.00 0.00 0.00 60 1017.3
20260502220048 18 342 4.8 11.3 0.00 0.00 0.00 62 1017.6
20260502214547 17 336 8.0 12.9 0.00 0.00 0.00 64 1017.6